CAPE
0 0 0 1 0 0 0 0 0 0 0 0 9 24 40 25 20 1 0 0 0 0 0 0 0 0 0 0 0 0 0 0 0 0 0 0 0 0 0 0 0 0 0 0 0
0 1 2 0 0 0 0 0 0 1 0 0 2 4 6 23 0 2 0 0 0 0 0 0 0 0 0 0 0 0 0 0 0 0 0 0 0 0 0 0 0 0 0 0 0
0 1 4 0 0 0 0 0 0 0 1 0 0 15 15 12 8 0 0 0 18 21 0 0 0 0 0 0 0 0 0 0 0 0 0 0 0 0 0 0 0 0 0 0 0
0 0 3 3 0 0 0 0 0 0 2 0 1 0 16 28 0 2 0 0 6 33 8 0 0 0 0 0 0 0 0 0 0 0 0 0 0 0 0 0 0 0 0 0 0
0 0 1 3 5 0 1 0 0 0 0 8 12 23 14 0 0 1 0 0 0 0 0 3 0 0 0 0 0 0 0 0 0 0 0 0 0 0 0 0 0 0 0 0 0
12 2 0 0 5 0 1 0 0 0 1 0 0 15 5 0 0 0 0 0 0 0 0 1 2 0 8 0 0 2 0 0 0 0 0 0 0 0 0 0 0 0 0 0 0
24 11 0 0 3 0 0 12 10 0 0 0 0 0 0 0 0 0 6 0 0 0 0 3 21 30 21 0 0 0 0 0 0 0 0 0 0 0 0 0 0 0 0 0 0
23 14 0 0 0 3 0 6 8 13 0 9 0 7 0 0 0 0 0 0 0 0 0 0 0 0 3 8 0 0 11 2 0 0 0 10 0 0 0 0 0 0 0 0 0
14 7 0 0 0 2 0 7 0 5 13 13 0 1 0 0 0 0 0 0 0 0 0 0 0 0 0 5 4 6 0 12 4 0 12 23 0 0 0 0 0 0 0 0 0
25 14 5 0 0 3 1 0 0 1 4 23 5 10 0 0 0 0 0 0 0 0 0 0 0 0 0 19 4 7 2 1 1 0 11 21 0 0 0 0 0 0 0 0 0
19 14 6 0 0 0 0 0 0 0 12 0 0 0 0 0 0 0 0 0 0 0 0 0 0 1 0 0 0 0 0 10 2 0 16 0 0 0 0 0 0 0 0 0 0
21 20 5 1 0 0 3 1 0 0 0 1 0 0 0 0 1 0 0 0 5 1 0 0 0 0 0 0 0 1 1 0 0 0 33 12 0 0 0 0 0 0 0 0 0
34 14 10 0 1 3 0 1 0 0 0 3 1 0 0 0 1 2 0 0 1 2 0 0 0 0 0 0 3 3 0 0 0 0 4 42 6 0 0 0 0 0 0 0 0
29 11 5 0 0 0 1 0 2 3 7 0 0 3 5 1 1 2 3 0 10 1 0 0 0 0 1 1 0 0 0 1 3 5 0 43 28 0 0 0 0 0 0 0 0
45 12 0 0 0 0 0 0 11 7 0 0 1 0 12 7 1 0 0 3 3 1 2 0 0 0 0 0 4 0 0 0 12 4 6 0 4 0 0 0 0 0 0 0 0
61 8 0 0 0 0 0 0 1 0 0 0 0 0 2 12 8 3 0 1 5 4 1 0 0 2 0 0 0 0 5 3 30 12 4 0 1 0 0 0 0 0 0 0 0
31 16 0 0 0 0 0 0 1 0 0 0 0 0 0 3 3 10 4 3 3 0 0 0 0 0 0 0 0 24 8 8 16 4 1 0 0 0 0 0 0 0 0 0 0
13 3 0 0 0 0 0 2 0 0 0 0 0 1 1 0 5 4 0 2 9 0 0 0 0 0 0 0 0 0 3 3 1 0 0 21 0 0 0 0 0 0 0 0 0
23 4 0 0 0 0 0 0 0 0 0 0 1 1 1 3 2 4 2 0 0 0 0 0 0 0 0 0 15 0 5 0 8 12 9 0 0 0 0 0 0 0 0 0 0
9 2 2 0 0 0 0 0 0 0 0 0 0 0 0 0 2 1 0 0 0 0 0 0 0 0 1 7 7 0 0 1 5 8 1 5 0 0 0 0 0 0 0 0 0
1 2 2 1 1 2 0 0 0 0 0 1 1 1 0 0 0 0 0 0 0 0 0 0 0 0 1 0 0 1 5 11 9 0 3 0 0 0 0 0 0 0 0 0 0
0 4 3 1 3 3 2 0 4 0 4 2 5 2 0 0 0 0 0 0 0 0 0 0 0 0 0 0 0 9 5 1 0 0 1 0 0 0 0 0 0 0 0 0 0
9 2 3 1 1 1 1 1 3 3 6 5 1 0 9 0 0 0 0 0 0 0 0 2 0 0 0 3 4 3 12 34 0 0 0 0 0 0 0 0 0 0 0 0 0
0 2 8 8 4 1 2 2 4 2 1 16 3 1 1 1 0 0 0 0 0 0 2 3 0 0 0 0 0 2 2 1 3 0 0 0 0 0 0 0 0 0 0 0 0
0 2 0 1 1 3 2 1 1 0 0 5 2 0 0 0 1 0 0 2 0 0 0 0 0 0 0 0 0 0 0 1 0 0 0 0 0 0 0 0 0 0 0 0 0
0 2 2 0 1 1 1 4 4 2 3 3 0 0 0 0 0 0 0 0 0 0 0 0 0 3 1 0 9 0 0 2 1 0 0 0 0 0 0 0 0 0 0 0 0
0 0 1 2 0 1 0 0 0 1 1 2 2 0 0 0 4 1 1 1 0 0 0 0 2 1 0 0 0 0 0 0 0 0 0 0 0 0 0 0 0 0 0 0 0
CIN
0 0 -0 0 0 0 0 0 0 -0 0 -28 -12 -2 -2 -1 -1 -0 0 0 0 0 0 0 0 0 0 0 0 0 0 0 0 0 0 0 0 0 0 0 0 0 0 0 0
0 -0 0 0 0 0 0 0 -0 -0 0 -1 -16 -29 -20 -4 -1 -1 0 0 0 -5 0 0 0 0 0 0 0 0 0 0 0 0 0 0 0 0 0 0 0 0 0 0 0
0 -0 0 0 0 0 0 0 0 0 -0 0 0 -12 -9 -8 -5 -0 0 0 -15 -2 0 0 0 0 0 0 0 0 0 0 0 0 0 0 0 0 0 0 0 0 0 0 0
0 0 0 0 0 0 0 0 0 0 0 0 0 0 -2 -6 0 -26 0 0 -12 -1 -3 -2 0 0 0 0 0 -0 0 0 0 0 0 0 0 0 0 0 0 0 0 0 0
0 0 0 -0 0 0 -0 0 0 0 0 -0 -2 -2 -4 0 0 -10 0 0 0 0 0 -2 0 0 0 0 0 0 0 0 0 0 0 0 0 0 0 0 0 0 0 0 0
0 0 0 0 -1 0 -0 0 0 0 0 0 0 -4 -3 0 0 0 0 0 0 0 0 -0 -0 0 -2 0 0 -2 0 0 0 0 0 0 0 0 0 0 0 0 0 0 0
0 -0 0 0 -1 0 0 0 0 0 0 0 0 0 -0 0 0 0 -12 0 0 0 0 -3 -13 -9 -6 0 0 0 0 0 0 0 0 0 0 0 0 0 0 0 0 0 0
-0 -0 0 0 0 -1 0 -1 -1 -0 0 -0 0 -4 0 0 0 0 0 0 0 0 0 0 0 0 -12 -15 0 0 -17 -4 0 0 0 -19 0 0 0 0 0 0 0 0 0
-8 -0 0 0 0 -1 0 -2 0 -2 -1 -2 -2 -5 0 0 0 0 0 0 0 0 0 0 0 0 -1 -13 -8 -13 0 -2 -0 0 -14 -9 0 0 0 0 0 0 0 0 0
-8 -4 -1 0 0 -1 -1 0 0 -1 -6 -2 -4 -0 0 0 0 0 0 0 0 0 0 0 0 0 0 -0 -0 -1 -2 0 -1 0 -20 -16 -1 0 0 0 0 0 0 0 0
-14 -4 -3 0 0 0 0 0 0 0 -0 0 0 0 0 0 0 0 0 0 -0 0 0 0 0 -0 0 0 0 0 0 -5 -2 0 -12 0 0 0 0 0 0 0 0 0 0
-16 -4 -7 -0 0 0 -4 -0 0 0 0 -18 0 0 0 0 -1 0 0 0 -0 0 0 0 -0 0 0 0 0 -0 0 0 0 0 -5 -14 0 0 0 0 0 0 0 0 0
-15 -11 -6 -5 -0 -1 0 -1 0 0 0 -0 -7 -4 0 -1 -3 -0 0 0 -0 -0 -0 0 0 0 0 0 -0 -0 0 0 0 0 -15 -4 -13 0 0 0 0 0 0 0 0
-12 -7 -4 0 -0 0 0 0 -22 -21 -2 0 -0 -2 -1 -0 0 -3 -2 0 -0 -0 0 0 0 0 -1 -0 0 0 0 -1 -0 -0 0 -7 -2 0 0 0 0 0 0 0 0
-7 -6 -10 0 0 0 0 0 -27 -11 0 0 -0 -0 -0 -3 -1 0 0 -0 0 -0 -2 0 0 0 0 0 -3 0 0 0 -1 -2 -4 0 -7 0 0 0 0 0 0 0 0
-7 -22 -14 0 0 0 0 0 -13 0 0 0 -5 0 -1 0 -0 -2 -0 -0 -0 0 0 0 -2 -5 0 0 0 0 -2 -3 -2 -1 0 0 0 0 0 0 0 0 0 0 0
-9 -40 -9 0 0 0 -5 0 -0 0 0 0 0 0 0 0 -1 -0 -2 0 0 0 0 0 0 0 0 0 0 -4 -1 -1 -1 -1 -0 -1 0 0 0 0 0 0 0 0 0
-20 -52 0 0 0 0 0 -2 0 0 0 -2 -0 0 0 -1 0 -0 0 0 -2 0 0 0 0 0 0 0 0 0 -8 -3 -2 0 0 -5 0 0 0 0 0 0 0 0 0
-55 0 -0 -0 0 0 0 0 0 0 0 0 0 0 0 -0 -0 -2 0 0 0 0 0 -2 0 0 0 0 -35 0 -1 0 -7 -30 -5 0 0 0 0 0 0 0 0 0 0
-49 0 0 0 0 0 -0 0 0 0 0 0 0 0 0 -1 0 0 0 0 0 0 0 0 0 0 -1 -28 -25 -4 0 -1 -12 -7 -1 -53 0 0 0 0 0 0 0 0 0
-15 0 0 0 -0 0 0 0 0 0 0 -0 0 0 0 0 0 0 0 0 0 0 0 -1 0 0 0 -0 0 0 -8 -2 -6 -0 -5 0 0 0 0 0 0 0 0 0 0
0 -1 0 0 0 0 0 0 -1 0 -0 0 0 0 0 0 0 0 0 0 0 0 0 0 0 0 0 -2 0 -34 -2 -1 -1 0 -9 0 0 0 0 0 0 0 0 0 0
-3 -16 0 -0 0 0 0 -1 -0 -1 0 0 0 -1 -24 0 0 0 0 0 0 0 0 0 0 0 0 0 -11 -1 -1 -7 0 0 0 0 0 0 0 0 0 0 0 0 0
-1 0 0 0 0 0 0 0 -0 0 0 0 -1 -12 -15 -8 0 0 0 0 0 0 -0 0 0 0 -0 0 0 -0 -1 -0 0 -0 0 0 0 0 0 0 0 0 0 0 0
-0 -0 0 0 0 -1 0 0 0 0 0 0 0 0 0 0 -1 -1 0 -4 0 -9 0 0 0 0 0 0 -0 0 0 0 0 0 0 0 0 0 0 0 0 0 0 0 0
-1 -2 -0 0 0 0 -0 0 0 0 0 0 -0 0 0 0 0 0 0 0 0 0 0 -0 0 0 0 0 0 0 0 -0 -5 -0 0 0 0 0 0 0 0 0 0 0 0
0 0 -3 -0 0 0 -0 0 0 -0 0 0 0 0 0 0 -11 -3 -7 -9 -2 0 0 0 0 0 0 0 0 -2 -31 -36 0 0 0 0 0 0 0 0 0 0 0 0 0
Wind_Speed
23 23 23 23 24 24 24 24 23 22 21 19 18 16 15 16 18 21 25 22 20 21 24 26 26 26 21 22 25 23 27 33 29 31 31 31 28 22 19 19 19 21 24 20 9
23 23 23 23 24 24 23 23 22 22 21 20 18 16 15 13 16 23 23 25 25 23 25 25 27 27 24 22 21 17 23 28 25 30 34 35 31 28 23 22 22 24 25 15 10
23 23 23 23 23 22 22 22 21 21 21 20 18 18 14 13 21 21 13 15 24 22 22 25 26 26 26 24 23 27 19 26 27 36 38 38 36 27 25 27 23 26 27 21 14
23 22 22 22 22 21 21 21 21 21 21 20 19 17 15 11 18 15 15 16 16 21 24 24 24 23 25 26 25 30 35 33 36 41 40 38 32 35 30 28 26 30 30 31 29
21 20 20 20 20 20 21 21 20 20 20 20 19 16 12 11 15 14 13 14 13 15 18 21 24 23 27 27 29 33 35 36 29 22 37 37 41 40 39 34 34 36 36 36 36
20 20 20 19 18 18 19 19 19 19 20 19 18 17 15 13 17 17 19 20 18 16 17 16 21 21 29 29 32 30 36 37 27 26 26 31 36 35 36 29 33 36 36 35 34
20 19 19 18 17 17 18 19 17 18 18 18 18 15 16 12 16 22 14 17 20 22 21 17 18 23 23 28 27 31 36 38 35 30 29 32 46 43 38 30 38 40 38 32 19
21 19 18 17 17 16 17 18 18 17 16 16 17 17 20 16 11 20 23 19 20 21 22 22 23 26 25 26 29 30 35 35 33 35 35 29 49 33 40 37 42 41 37 18 17
22 20 19 17 16 16 15 15 17 17 15 14 18 18 25 17 13 15 16 21 21 18 20 23 24 25 26 29 33 30 38 37 38 34 34 30 28 36 32 34 40 38 28 19 15
21 20 18 17 16 15 15 14 16 17 16 14 18 22 21 19 16 13 15 16 19 21 21 20 22 28 28 28 36 34 36 40 40 33 36 39 38 36 35 37 38 35 25 19 13
23 19 18 16 16 13 12 16 23 23 19 20 18 20 23 17 16 14 11 15 17 22 26 23 27 30 30 30 32 35 40 39 40 37 34 39 39 40 41 39 38 33 27 17 13
24 19 16 14 14 11 12 18 20 20 31 21 19 19 16 16 22 18 11 14 17 23 22 28 35 26 25 27 31 34 37 42 42 41 38 40 43 43 37 42 39 34 25 15 13
19 17 14 13 12 13 15 16 13 19 31 29 19 21 18 18 22 16 9 14 18 22 22 28 24 22 24 28 30 32 35 41 45 41 41 41 48 50 43 40 40 38 27 18 12
18 14 12 10 16 15 17 12 13 18 32 30 23 19 14 14 23 12 10 13 21 23 22 29 27 29 25 30 28 37 35 40 43 40 46 32 47 50 48 43 41 41 27 19 13
16 12 10 9 15 14 14 6 8 17 37 20 18 16 18 13 17 16 9 14 21 20 19 26 23 26 31 32 28 41 35 40 40 45 46 49 42 50 36 48 44 37 26 19 12
17 12 9 11 14 11 4 5 11 22 33 22 20 20 20 17 20 20 16 14 18 23 23 26 26 25 30 35 34 32 33 38 37 41 52 47 48 45 46 45 46 31 23 17 13
18 14 12 11 13 4 1 8 20 25 22 22 22 19 18 21 20 19 21 17 19 20 23 28 34 29 28 31 30 33 37 39 41 42 52 41 44 49 31 37 28 25 22 16 13
17 15 15 13 5 5 7 14 25 24 23 21 21 19 23 22 21 18 19 12 10 16 20 23 30 26 23 31 30 35 41 42 40 51 48 34 39 34 40 33 21 18 17 14 14
15 17 17 10 7 7 8 22 23 23 22 21 20 21 22 19 16 13 6 4 11 9 12 15 30 26 11 25 30 38 49 53 39 40 41 34 26 29 22 14 16 15 14 13 12
20 18 20 10 8 9 17 23 23 20 17 18 16 14 19 17 13 8 5 20 27 28 28 24 26 26 33 32 42 44 40 53 46 40 45 39 37 37 17 15 16 15 13 11 10
18 20 18 12 10 15 23 21 22 17 13 13 13 15 12 14 9 18 21 23 24 23 24 23 25 24 14 36 42 45 46 49 45 40 25 30 27 21 16 11 11 11 10 11 10
19 22 15 15 20 24 25 21 20 16 12 2 8 5 6 11 19 21 24 23 18 23 27 28 22 23 30 33 41 43 45 51 48 43 39 17 18 17 10 8 7 8 9 9 8
16 17 15 17 30 27 24 23 19 12 7 8 4 9 13 17 16 23 24 21 24 24 23 25 21 21 24 30 34 47 47 44 40 37 32 15 13 13 5 5 5 5 6 6 7
20 22 22 26 23 24 24 24 16 12 12 3 11 23 21 22 24 19 24 19 25 25 24 22 22 24 25 26 34 40 46 43 37 26 15 9 10 8 3 2 2 5 6 8 10
22 24 22 28 32 24 14 20 18 22 11 6 21 28 24 23 25 24 21 21 25 27 23 18 16 21 28 32 35 39 38 41 37 29 4 8 5 4 2 2 4 4 4 7 8
24 24 25 24 24 24 26 20 29 23 18 16 25 27 28 27 26 20 23 24 22 27 23 17 11 9 10 18 23 35 37 35 24 12 5 8 10 9 3 3 3 5 6 5 5
21 23 23 24 21 22 27 32 29 23 22 19 27 28 30 29 28 26 23 25 22 23 23 19 12 7 4 12 20 20 32 26 20 16 13 11 11 7 4 5 2 2 2 1 2
Wind_Direction
312 312 311 309 312 314 315 316 318 320 320 325 317 318 317 309 306 299 291 290 303 303 301 296 290 290 291 281 279 281 275 269 270 267 268 276 286 291 303 297 301 292 284 299 307
312 312 312 311 313 316 319 319 321 321 320 321 326 328 321 320 310 296 295 292 290 300 293 291 285 286 284 282 276 271 271 273 275 271 267 270 284 282 287 288 294 291 282 307 295
312 312 311 313 315 317 320 321 323 324 323 323 323 322 327 325 314 308 297 286 286 293 295 291 287 287 284 278 271 269 248 275 277 265 264 268 275 282 283 280 287 290 278 298 299
312 313 314 315 317 320 322 324 325 325 325 323 324 324 322 323 315 331 328 315 296 288 285 288 289 286 284 277 273 271 270 271 270 262 264 267 279 274 275 280 288 286 282 282 284
311 314 315 316 320 322 322 325 326 330 329 325 324 329 333 313 301 323 330 329 325 313 289 279 281 286 282 279 277 270 269 270 272 266 266 272 270 270 269 278 279 278 275 274 275
308 311 313 313 317 324 326 329 329 330 331 330 325 327 323 305 315 295 300 303 307 308 304 285 284 285 284 279 274 278 271 269 266 269 271 273 275 272 270 280 278 274 274 274 278
303 307 309 311 313 320 325 329 331 333 334 335 333 329 318 304 322 313 292 297 298 295 293 292 286 283 289 282 283 280 274 271 267 264 267 274 267 264 266 278 272 268 272 281 292
298 302 306 309 309 313 321 326 329 333 334 335 336 328 317 330 301 303 299 297 297 292 290 291 293 286 282 285 284 279 274 268 270 266 265 265 266 273 265 269 263 266 270 286 290
292 295 300 305 307 310 317 325 329 330 333 336 328 325 317 337 314 301 295 293 296 293 290 290 286 282 283 274 275 276 270 272 271 266 264 259 259 270 272 268 264 268 269 277 289
288 290 293 299 306 308 315 325 330 330 325 331 323 319 319 322 328 309 298 291 290 293 294 289 283 272 271 268 267 269 273 269 269 268 262 263 270 268 266 266 261 264 268 276 281
283 284 289 291 299 304 313 319 307 309 306 305 316 316 322 331 330 322 312 290 286 287 281 284 274 268 268 267 271 271 271 272 267 266 264 259 266 263 260 262 260 260 268 266 273
278 277 284 286 294 298 305 305 307 319 304 300 298 302 305 330 315 309 316 286 275 275 279 280 272 276 274 270 268 267 269 266 268 264 264 262 262 260 261 256 257 258 262 256 269
275 273 276 283 292 292 290 303 326 329 305 307 304 303 288 299 296 303 286 279 280 277 274 270 294 270 269 268 266 263 262 264 262 264 266 262 261 255 255 256 253 257 258 251 250
268 267 269 278 285 286 290 297 324 334 305 310 321 334 325 308 307 279 252 280 285 275 274 280 276 274 275 263 261 264 263 263 261 260 255 261 258 251 247 250 250 251 250 244 247
257 254 252 251 290 278 303 321 335 329 298 323 333 349 344 321 334 325 253 263 275 275 271 280 284 268 261 260 263 261 263 260 260 253 254 250 257 246 253 244 245 245 242 237 223
245 240 235 254 290 290 334 11 324 309 300 316 330 330 330 326 315 320 320 269 296 278 272 272 282 280 269 265 260 262 263 259 257 252 247 247 249 249 245 243 242 241 234 223 219
237 229 231 252 268 255 39 313 301 298 320 319 324 330 329 325 319 317 309 281 280 280 272 280 273 275 273 267 261 253 245 242 241 240 234 241 243 234 254 244 242 224 226 219 210
220 218 235 257 195 205 275 294 289 306 308 327 330 331 328 330 323 319 319 287 240 286 292 285 282 268 264 254 252 242 233 230 233 223 225 252 239 247 249 245 232 215 209 207 211
210 224 233 237 196 219 265 284 296 306 319 324 332 331 336 338 335 340 320 286 294 245 287 290 253 264 234 249 240 236 228 224 236 238 234 241 257 245 250 222 215 209 204 200 206
226 224 231 208 202 228 273 285 296 309 328 334 335 349 349 355 356 12 47 186 199 192 188 201 219 224 231 234 222 232 226 211 218 223 224 236 240 233 226 215 217 211 202 204 206
213 230 228 200 230 250 268 287 300 311 331 340 349 352 6 10 43 187 197 191 182 193 177 181 207 211 249 199 182 196 201 207 211 215 222 230 230 239 219 195 200 206 201 187 189
224 233 208 194 241 255 267 288 307 318 332 342 0 31 90 107 182 186 185 192 183 188 182 191 202 211 209 213 209 206 199 186 197 202 224 241 246 240 208 199 185 176 177 182 183
209 233 217 216 242 253 273 287 304 321 348 12 53 150 135 143 180 192 197 200 188 174 162 184 196 189 180 197 200 187 189 194 189 189 237 228 221 226 206 217 209 170 175 175 166
227 226 232 236 256 258 269 280 299 326 199 168 172 218 204 214 191 195 196 205 171 159 167 188 200 196 193 201 193 186 183 189 191 215 214 209 183 212 198 217 204 144 149 150 153
230 234 234 232 241 260 277 287 285 227 164 77 209 199 197 202 197 199 195 202 175 155 177 210 206 219 219 214 207 205 188 188 193 210 195 132 166 199 171 142 100 110 132 135 142
230 237 233 242 248 255 258 275 238 213 191 179 208 206 201 202 203 199 192 198 208 173 176 175 225 237 230 207 202 195 188 201 227 241 239 258 258 270 269 292 313 99 113 139 157
243 237 234 243 253 256 255 239 223 202 213 192 225 230 217 214 226 228 235 204 193 180 174 189 199 234 245 216 217 228 205 228 246 251 254 263 271 296 270 283 322 104 97 112 175